Location: Skalnate Pleso
(49.1889°N, 20.2450°E)
Time: 06:09:01
(UTC+01:00)

STARLINK - Pass Details

Date: 19 November 2019
Orbit: 529 x 531 km, 53.0° (Epoch: 08 December)

Event Time Altitude Azimuth Distance (km) Brightness Sun altitude
Exits shadow 05:09:11 21° 228° (SW) 1,206 5.0 -17.0°
Maximum altitude 05:11:41 66° 150° (SSE) 582 3.8 -16.6°
Drops below altitude 10° 05:15:42 10° 69° (ENE) 1,790 7.1 -15.9°
Sets 05:17:57 0° 66° (ENE) 2,691 8.1 -15.6°
